Location: Stara Lesna
(49.1528°N, 20.2911°E)
Time: 00:31:18
(UTC+02:00)

Cosmos 1862 Rocket - Pass Details

Date: 21 September 2019
Orbit: 603 x 634 km, 82.5° (Epoch: 15 October)

Event Time Altitude Azimuth Distance (km) Brightness Sun altitude
Exits shadow 04:05:34 22° 164° (SSE) 1,390 5.2 -22.3°
Maximum altitude 04:08:16 54° 95° (E) 773 4.2 -21.9°
Drops below altitude 10° 04:12:40 10° 18° (NNE) 2,032 6.8 -21.3°
Sets 04:14:57 0° 14° (NNE) 2,944 7.7 -20.9°
